Location: Ch�risy
(50.2331°N, 2.9131°E)
Time: 03:20:13
(UTC+00:00)

Cosmos 1092 Rocket - Pass Details

Date: 17 January 2021
Orbit: 954 x 995 km, 83.0° (Epoch: 24 February)

Event Time Altitude Azimuth Distance (km) Brightness Sun altitude
Rises 19:07:39 0° 184° (S) 3,661 7.1 -26.6°
Reaches altitude 10° 19:10:09 10° 183° (S) 2,712 6.3 -27.0°
Maximum altitude 19:16:22 81° 97° (E) 983 3.8 -28.0°
Enters shadow 19:17:25 63° 25° (NNE) 1,074 4.0 -28.2°
Exits shadow 19:24:31 - 11° (N) 3,447 6.8 -29.3°
Sets 19:25:03 0° 11° (N) 3,652 6.9 -29.4°
